Regional Weather Roundup
Issued by NWS

Home | Current Version | Previous Version | Graphics & Text | Print | Product List | Glossary On
Versions: 1 2 3 4 5 6 7 8 9 10 11 12 13 14 15 16 17 18 19 20 21 22 23 24 25 26 27 28 29 30 31 32 33 34 35 36 37 38 39 40 41 42 43 44 45 46 47 48
000
ASUS45 KBOI 040510
RWRID
WEATHER ROUNDUP FOR IDAHO
NATIONAL WEATHER SERVICE BOISE ID
1100 PM MDT SUN MAY 03 2015

NOTE: "FAIR" INDICATES FEW OR NO CLOUDS BELOW 12000 FEET
WITH NO SIGNIFICANT WEATHER AND/OR OBSTRUCTIONS TO VISIBILITY

IDZ012-014-040600-
SOUTHWEST IDAHO


CITY           SKY/WX    TMP DP  RH WIND       PRES   REMARKS
BOISE          CLEAR     62  30  29 CALM      29.82R
CALDWELL       CLEAR     61  32  33 CALM      29.83R
MOUNTAIN HOME  CLEAR     62  26  25 N5        29.82R
$$

IDZ016-017-040600-
SOUTHCENTRAL IDAHO


CITY           SKY/WX    TMP DP  RH WIND       PRES   REMARKS
BURLEY         CLOUDY    62  38  40 S15       29.86F
JEROME         PTCLDY    60  40  47 S13       29.90R
TWIN FALLS     MOCLDY    61  41  47 S15       29.88S
$$

IDZ019>023-040600-
SOUTHEAST IDAHO


CITY           SKY/WX    TMP DP  RH WIND       PRES   REMARKS
IDAHO FALLS    MOCLDY    58  40  51 SE10      29.95S
POCATELLO      CLEAR     54  39  57 NE9       29.92R
REXBURG        PTCLDY    52  41  66 S7        29.96S
$$

IDZ006-010-011-018-031-032-040600-
CENTRAL IDAHO MOUNTAINS


CITY           SKY/WX    TMP DP  RH WIND       PRES   REMARKS
MCCALL         CLEAR     45  29  53 CALM      29.92R
HAILEY         PTCLDY    46  37  71 CALM      29.96R
STANLEY          N/A     39  26  59 CALM      30.00R
SALMON         CLEAR     50  32  50 SE3       29.89R
CHALLIS        PTCLDY    53  34  48 NW3       29.91R
$$

IDZ002-004-006-007-026-040600-
NORTHERN IDAHO


CITY           SKY/WX    TMP DP  RH WIND       PRES   REMARKS
LEWISTON       CLEAR     57  30  35 S6        29.85R
LOWELL           N/A     49  39  68 CALM      29.89R
COEUR D`ALENE  CLEAR     48  32  53 E5        29.90F
MULLAN PASS    CLEAR     48  16  27 CALM      29.98S
$$



USA.gov is the U.S. government's official web portal to all federal, state and local government web resources and services.